This demonstration page uses our WeatherBlox Daily Observations layout. Learn more.

Left ArrowRight Arrow

38.88101, -77.10428

Hourly Observations for May 8, 2022

Temp ( °F °C ) Dew Point ( °F °C ) Humidity (%) Winds ( mph kmh ) Pressure ( in mb ) Visibility ( mi km ) Precip ( " mm )
12:36 am 00:36 Cloudy with Drizzle 47 8.3 42 5.6 83 83 NNE 21 33 29.94 1014 6 10 0.00 0.00
12:52 am 00:52 Cloudy with Drizzle 47 8.3 42 5.6 83 83 NNE 18 30 29.94 1014 6 10 0.00 0.00
1:52 am 01:52 Cloudy with Drizzle 47 8.3 41 5 80 80 NNE 18 30 29.94 1014 8 13 0.00 0.00
2:52 am 02:52 Cloudy with Drizzle 46 7.8 41 5 83 83 NNE 17 28 29.94 1014 5 8 0.00 0.00
3:52 am 03:52 Cloudy 46 7.8 39 3.9 77 77 NNE 18 30 29.96 1014 10 16 0.00 0.00
4:52 am 04:52 Cloudy 46 7.8 39 3.9 77 77 NNE 17 28 29.96 1015 10 16 0.00 0.00
5:52 am 05:52 Cloudy 45 7.2 39 3.9 80 80 NNE 15 24 29.98 1015 10 16 0.00 0.00
6:16 am 06:16 Cloudy 45 7.2 39 3.9 80 80 NNE 17 28 29.99 1016 7 11 0.00 0.00
6:52 am 06:52 Cloudy with Drizzle 45 7.2 40 4.4 83 83 N 14 22 30.01 1016 4 6 0.00 0.00
7:17 am 07:17 Cloudy 45 7.2 39 3.9 80 80 N 14 22 30.03 1017 10 16 0.00 0.00
7:52 am 07:52 Cloudy 45 7.2 38 3.3 77 77 N 18 30 30.03 1017 10 16 0.00 0.00
8:52 am 08:52 Cloudy 47 8.3 37 2.8 69 69 NNE 17 28 30.06 1018 10 16 0.00 0.00
9:43 am 09:43 Cloudy 49 9.4 37 2.8 64 64 NNE 22 35 30.07 1018 10 16 0.00 0.00
9:52 am 09:52 Cloudy 49 9.4 38 3.3 66 66 NNE 18 30 30.07 1018 10 16 0.00 0.00
10:52 am 10:52 Cloudy 51 10.6 39 3.9 64 64 NNE 20 31 30.07 1018 10 16 0.00 0.00
11:52 am 11:52 Cloudy 52 11.1 37 2.8 57 57 NE 20 31 30.08 1019 10 16 0.00 0.00
12:52 pm 12:52 Cloudy 52 11.1 37 2.8 57 57 NNE 16 26 30.09 1019 10 16 0.00 0.00
1:52 pm 13:52 Cloudy 54 12.2 38 3.3 55 55 NNE 17 28 30.09 1019 10 16 0.00 0.00
2:52 pm 14:52 Cloudy 55 12.8 38 3.3 53 53 NE 14 22 30.08 1019 10 16 0.00 0.00
3:52 pm 15:52 Cloudy 56 13.3 37 2.8 49 49 NE 16 26 30.08 1019 10 16 0.00 0.00
4:52 pm 16:52 Cloudy 55 12.8 39 3.9 55 55 ENE 16 26 30.08 1019 10 16 0.00 0.00
5:52 pm 17:52 Cloudy 57 13.9 39 3.9 51 51 NE 14 22 30.09 1019 10 16 0.00 0.00
6:52 pm 18:52 Cloudy 57 13.9 37 2.8 47 47 NE 12 19 30.10 1019 10 16 0.00 0.00
7:52 pm 19:52 Cloudy 56 13.3 35 1.7 46 46 NE 10 17 30.13 1020 10 16 0.00 0.00
8:52 pm 20:52 Cloudy 55 12.8 34 1.1 45 45 NE 5 7 30.13 1020 10 16 0.00 0.00
9:52 pm 21:52 Mostly Clear 53 11.7 36 2.2 52 52 NNE 3 6 30.14 1021 10 16 0.00 0.00
10:52 pm 22:52 Mostly Clear 50 10 37 2.8 61 61 NNW 8 13 30.14 1021 10 16 0.00 0.00
11:52 pm 23:52 Mostly Clear 47 8.3 39 3.9 74 74 N 7 11 30.16 1021 10 16 0.00 0.00

Powered by AerisWeather